Back to catalog

SNUGLITE 2

SNUGLITE-II

AliveAmateur RadioSSO
NORAD 52899·PAYLOAD·🇰🇷 South Korea

Launched Jun 21, 2022 from Naro Space Center

Loading…

Next Passes (next 24 hours)

TLE

FreshSource: AMSAT

Epoch: Sep 14, 2026, 03:06 UTC

1 52899U 22065F   26257.12967346  .00000711  00000-0  14331-3 0  9992
2 52899  98.2334  41.8751 0008691 103.2455 256.9717 14.64484178224017

Track SNUGLITE 2 in real time with AllMySat

Download on the App Store